Location: San Antonio
(29.4240°N, 98.4930°W)
Time: 15:43:12
(UTC-05:00)

BlueWalker 3 - Pass Details

Date: 22 June 2024
Orbit: 480 x 492 km, 53.2° (Epoch: 11 July)

Event Time Altitude Azimuth Distance (km) Brightness Sun altitude
Rises 04:22:45 0° 329° (NNW) 2,533 5.7 -23.7°
Reaches altitude 10° 04:25:05 10° 339° (NNW) 1,652 4.9 -23.3°
Maximum altitude 04:28:26 31° 44° (NE) 862 3.7 -22.9°
Drops below altitude 10° 04:31:47 10° 108° (ESE) 1,651 4.8 -22.4°
Sets 04:34:06 0° 118° (ESE) 2,529 5.7 -22.0°
